Regional Weather Roundup
Issued by NWS Cleveland, OH

Home | Current Version | Previous Version | Graphics & Text | Print | Product List | Glossary On
Versions: 1 2 3 4 5 6 7 8 9 10 11 12 13 14 15 16 17 18 19 20 21 22 23 24 25 26 27 28 29 30 31 32 33 34 35 36 37 38 39 40 41 42 43 44 45 46 47 48 49 50
000
ASUS41 KCLE 271902
RWRCLE
OHIO REGIONAL WEATHER ROUNDUP
NATIONAL WEATHER SERVICE CLEVELAND, OH
300 PM EDT MON JUL 27 2015

NOTE: "FAIR" INDICATES FEW OR NO CLOUDS BELOW 12,000 FEET WITH NO
SIGNIFICANT WEATHER AND/OR OBSTRUCTIONS TO VISIBILITY.

OHZ001>008-015>018-024>027-034-035-043-044-272000-
   NORTHWEST OHIO

CITY           SKY/WX    TMP DP  RH WIND       PRES   REMARKS
DEFIANCE       SUNNY     87  61  41 E9        30.02F
FINDLAY        SUNNY     85  60  42 E7        30.01F
TOLEDO EXPRESS MOSUNNY   85  63  47 NE10      30.02F
TOLEDO EXEC    SUNNY     85  62  46 E9        30.03F
LIMA           SUNNY     85  60  42 E3        30.02F
$$

OHZ009>014-019>023-028>033-038-089-272000-
   NORTHEAST OHIO

CITY           SKY/WX    TMP DP  RH WIND       PRES   REMARKS
CLE-HOPKINS    MOSUNNY   85  67  54 N13       30.03S
CLE-LAKEFRONT  SUNNY     82  69  64 N12       30.01S
CUY CO. ARPT   MOSUNNY   88  70  55 N12       30.03  HX  92
LORAIN-ELYRIA  SUNNY     85  67  54 NE9       30.02S
ASHTABULA      SUNNY     85  63  47 N9        30.03F
AKRON-CANTON   MOSUNNY   87  58  37 E6        30.02F
WOOSTER        SUNNY     85  58  39 VRB3      30.03F
MANSFIELD      SUNNY     84  58  40 CALM      30.03F
YOUNGSTOWN     MOSUNNY   86  60  41 VRB3      30.02F
$$

OHZ042-051>053-060>062-070>072-077>081-272000-
  SOUTHWEST OHIO

CITY           SKY/WX    TMP DP  RH WIND       PRES   REMARKS
CINC-COVINGTON PTSUNNY   85  71  63 CALM      29.98F HX  90
CINC-LUNKEN    PTSUNNY   82  74  76 NE8       29.98F
HAMILTON       CLOUDY    82  74  76 E5        29.99F
DAYTON         CLOUDY    80  73  79 NE8       30.01F
WRIGHT-PAT AFB NOT AVBL
DAYTON GENERAL   N/A    N/A N/A N/A MISG      30.00F
WILMINGTON     CLOUDY    76  69  79 SE5       30.01F
$$

OHZ036-037-039>041-045>050-054>059-063>069-073>076-082>088-272000-
  CENTRAL AND SOUTHEAST OHIO

CITY           SKY/WX    TMP DP  RH WIND       PRES   REMARKS
COLUMBUS       CLOUDY    83  68  60 CALM      29.99F
OSU AIRPORT    CLOUDY    81  71  71 SW6       30.00F
BOLTON FIELD   PTSUNNY   82  73  74 CALM      30.01F
RICKENBACK AFB NOT AVBL
NEWARK         MOSUNNY   86  67  52 VRB3      29.99F
MARION         MOSUNNY   84  59  42 E8        30.02F
LANCASTER      PTSUNNY   85  72  65 VRB3      30.00F HX  91
ZANESVILLE     MOSUNNY   86  66  51 VRB3      30.00F
NEW PHILLY     SUNNY     85  67  54 CALM      30.01F
$$


USA.gov is the U.S. government's official web portal to all federal, state and local government web resources and services.